DW6610 Weather Reports


time (UTC)temp
C
wind
direction
speed
KPH
gust
KPH
rain 1hr
cm
rain 24hr
cm
rain mn
cm
humidity
%
barometer
mb
20260904172554 37 107 1.6 6.4 0.00 0.00 0.00 54 1016.8
20260904172052 37 97 1.6 4.8 0.00 0.00 0.00 57 1016.9
20260904171606 36 0 1.6 8.0 0.00 0.00 0.00 55 1017.0
20260904171051 36 146 1.6 8.0 0.00 0.00 0.00 55 1017.1
20260904170554 36 98 3.2 6.4 0.00 0.00 0.00 55 1017.0
20260904170108 37 129 1.6 4.8 0.00 0.00 0.00 58 1017.1
20260904165553 36 75 1.6 6.4 0.00 0.00 0.00 56 1017.1
20260904165051 36 156 1.6 6.4 0.00 0.00 0.00 57 1017.1
20260904164604 37 162 1.6 6.4 0.00 0.00 0.00 56 1017.2
20260904164052 37 84 1.6 6.4 0.00 0.00 0.00 56 1017.2
20260904163551 37 74 0.0 6.4 0.00 0.00 0.00 59 1017.3
20260904163110 36 86 0.0 9.7 0.00 0.00 0.00 56 1017.2
20260904162552 36 79 1.6 9.7 0.00 0.00 0.00 59 1017.2
20260904162051 36 104 0.0 3.2 0.00 0.00 0.00 60 1017.3
20260904161616 36 53 0.0 8.0 0.00 0.00 0.00 60 1017.3
20260904161051 36 90 3.2 8.0 0.00 0.00 0.00 63 1017.3
20260904160551 36 178 1.6 4.8 0.00 0.00 0.00 61 1017.4
20260904160105 36 118 1.6 8.0 0.00 0.00 0.00 59 1017.4
20260904155551 35 102 3.2 8.0 0.00 0.00 0.00 58 1017.4
20260904155051 36 0 0.0 6.4 0.00 0.00 0.00 64 1017.4
20260904154603 35 124 1.6 6.4 0.00 0.00 0.00 60 1017.5
20260904154051 35 90 0.0 6.4 0.00 0.00 0.00 62 1017.4
20260904153551 35 116 1.6 6.4 0.00 0.00 0.00 63 1017.4
20260904153108 35 0 0.0 6.4 0.00 0.00 0.00 66 1017.4
20260904152551 35 138 3.2 6.4 0.00 0.00 0.00 66 1017.3
20260904152051 35 105 1.6 4.8 0.00 0.00 0.00 65 1017.3
20260904151602 35 84 1.6 3.2 0.00 0.00 0.00 67 1017.3
20260904151051 35 94 0.0 4.8 0.00 0.00 0.00 66 1017.2
20260904150551 34 137 1.6 6.4 0.00 0.00 0.00 68 1017.2
20260904150106 34 113 1.6 6.4 0.00 0.00 0.00 67 1017.2
20260904145553 34 0 1.6 6.4 0.00 0.00 0.00 66 1017.2
20260904145052 34 107 0.0 3.2 0.00 0.00 0.00 66 1017.1
20260904144621 33 98 0.0 4.8 0.00 0.00 0.00 70 1017.1
20260904144051 33 72 0.0 4.8 0.00 0.00 0.00 68 1017.2
20260904143552 33 0 1.6 4.8 0.00 0.00 0.00 68 1017.2
20260904143102 33 69 0.0 4.8 0.00 0.00 0.00 68 1017.2
20260904142552 33 59 0.0 3.2 0.00 0.00 0.00 67 1017.1
20260904142051 33 0 0.0 3.2 0.00 0.00 0.00 71 1017.1
20260904141604 32 141 0.0 3.2 0.00 0.00 0.00 72 1017.1
20260904141052 32 125 0.0 1.6 0.00 0.00 0.00 73 1017.1
20260904140552 32 114 0.0 1.6 0.00 0.00 0.00 72 1017.1
20260904140103 32 106 0.0 1.6 0.00 0.00 0.00 74 1017.3
20260904135552 31 77 0.0 1.6 0.00 0.00 0.00 76 1017.1
20260904135052 31 0 0.0 1.6 0.00 0.00 0.00 75 1017.1
20260904134608 31 82 0.0 1.6 0.00 0.00 0.00 75 1017.0
20260904134051 31 0 0.0 1.6 0.00 0.00 0.00 77 1017.0
20260904133551 30 72 0.0 1.6 0.00 0.00 0.00 78 1017.0
20260904133105 30 0 0.0 1.6 0.00 0.00 0.00 81 1017.0
20260904132552 29 0 0.0 1.6 0.00 0.00 0.00 82 1017.0
20260904132052 28 0 0.0 3.2 0.00 0.00 0.00 84 1016.9
20260904131605 27 0 0.0 3.2 0.00 0.00 0.00 86 1016.8
20260904131051 27 71 0.0 3.2 0.00 0.00 0.00 87 1016.9
20260904130551 26 70 0.0 3.2 0.00 0.00 0.00 89 1017.0
20260904125552 25 78 0.0 1.6 0.00 0.00 0.00 91 1016.9
20260904125052 25 0 0.0 1.6 0.00 0.00 0.00 93 1016.9
20260904124606 25 0 0.0 1.6 0.00 0.00 0.00 93 1016.9
20260904124057 24 77 0.0 1.6 0.00 0.00 0.00 94 1016.8
20260904123551 24 0 0.0 1.6 0.00 0.00 0.00 94 1016.8
20260904123102 23 0 0.0 1.6 0.00 0.00 0.00 95 1016.7
20260904122551 23 77 0.0 1.6 0.00 0.00 0.00 96 1016.7
20260904122050 23 0 0.0 1.6 0.00 0.00 0.00 96 1016.7
20260904121603 23 77 0.0 1.6 0.00 0.00 0.00 96 1016.6
20260904121056 23 0 0.0 0.0 0.00 0.00 0.00 96 1016.5
20260904120553 23 0 0.0 0.0 0.00 0.00 0.00 96 1016.4
20260904120118 23 0 0.0 1.6 0.00 0.00 0.00 96 1016.4
20260904115552 23 0 0.0 1.6 0.00 0.00 0.00 96 1016.3
20260904115052 23 0 0.0 1.6 0.00 0.00 0.00 96 1016.3
20260904114603 23 0 0.0 1.6 0.00 0.00 0.00 96 1016.3
20260904114052 23 0 0.0 1.6 0.00 0.00 0.00 96 1016.3
20260904113552 23 0 0.0 1.6 0.00 0.00 0.00 96 1016.1
20260904113107 23 0 0.0 1.6 0.00 0.00 0.00 96 1016.1
20260904112556 23 0 0.0 1.6 0.00 0.00 0.00 96 1016.0
20260904112056 23 77 0.0 1.6 0.00 0.00 0.00 97 1016.0
20260904111613 23 0 0.0 1.6 0.00 0.00 0.00 97 1016.0
20260904111052 23 77 0.0 1.6 0.00 0.00 0.00 97 1016.0
20260904110555 23 0 0.0 1.6 0.00 0.00 0.00 97 1016.0
20260904110106 23 0 0.0 1.6 0.00 0.00 0.00 97 1015.9
20260904105552 23 0 0.0 1.6 0.00 0.00 0.00 97 1015.9
20260904105052 23 0 0.0 1.6 0.00 0.00 0.00 97 1015.8
20260904104619 23 0 0.0 1.6 0.00 0.00 0.00 97 1015.9
20260904104051 23 0 0.0 1.6 0.00 0.00 0.00 97 1015.9
20260904103552 23 0 0.0 1.6 0.00 0.00 0.00 97 1015.8
20260904103106 23 0 0.0 1.6 0.00 0.00 0.00 97 1015.8
20260904102551 23 0 0.0 0.0 0.00 0.00 0.00 97 1015.8
20260904102051 23 0 0.0 0.0 0.00 0.00 0.00 97 1015.8
20260904101605 23 0 0.0 0.0 0.00 0.00 0.00 97 1015.8
20260904101051 23 0 0.0 0.0 0.00 0.00 0.00 96 1015.8
20260904100552 23 0 0.0 0.0 0.00 0.00 0.00 97 1015.8
20260904095552 23 0 0.0 0.0 0.00 0.00 0.00 97 1015.6
20260904095051 23 0 0.0 0.0 0.00 0.00 0.00 97 1015.7
20260904094613 23 0 0.0 0.0 0.00 0.00 0.00 96 1015.7
20260904094051 23 0 0.0 0.0 0.00 0.00 0.00 96 1015.6
20260904093554 23 0 0.0 0.0 0.00 0.00 0.00 96 1015.5
20260904093106 23 0 0.0 0.0 0.00 0.00 0.00 96 1015.6
20260904092551 23 0 0.0 0.0 0.00 0.00 0.00 96 1015.5
20260904092051 23 0 0.0 0.0 0.00 0.00 0.00 96 1015.5
20260904091604 23 0 0.0 0.0 0.00 0.00 0.00 96 1015.5
20260904091051 23 0 0.0 0.0 0.00 0.00 0.00 96 1015.5
20260904090553 23 0 0.0 0.0 0.00 0.00 0.00 96 1015.5
20260904090104 24 0 0.0 0.0 0.00 0.00 0.00 96 1015.5
20260904085551 24 0 0.0 0.0 0.00 0.00 0.00 96 1015.4
20260904085052 24 0 0.0 1.6 0.00 0.00 0.00 95 1015.3
20260904084603 24 0 0.0 1.6 0.00 0.00 0.00 95 1015.4
20260904084051 24 0 0.0 1.6 0.00 0.00 0.00 95 1015.4
20260904083553 24 0 0.0 0.0 0.00 0.00 0.00 95 1015.3
20260904083103 24 0 0.0 0.0 0.00 0.00 0.00 94 1015.2
20260904082552 24 0 0.0 1.6 0.00 0.00 0.00 94 1015.2
20260904082051 24 0 0.0 1.6 0.00 0.00 0.00 94 1015.2
20260904081642 24 0 0.0 0.0 0.00 0.00 0.00 94 1015.2
20260904081051 24 0 0.0 0.0 0.00 0.00 0.00 94 1015.1
20260904080551 24 0 0.0 0.0 0.00 0.00 0.00 94 1015.1
20260904080105 24 0 0.0 0.0 0.00 0.00 0.00 94 1015.2
20260904075553 24 0 0.0 0.0 0.00 0.00 0.00 94 1015.2
20260904075052 24 0 0.0 0.0 0.00 0.00 0.00 94 1015.1
20260904074617 25 0 0.0 1.6 0.00 0.00 0.00 94 1015.1
20260904074052 25 0 0.0 1.6 0.00 0.00 0.00 94 1015.1
20260904073552 25 0 0.0 1.6 0.00 0.00 0.00 94 1015.1
20260904073109 25 0 0.0 0.0 0.00 0.00 0.00 95 1015.2
20260904072552 25 0 0.0 0.0 0.00 0.00 0.00 94 1015.3
20260904072051 25 0 0.0 0.0 0.00 0.00 0.00 95 1015.3
20260904071601 25 0 0.0 0.0 0.00 0.00 0.00 95 1015.3
20260904071051 25 0 0.0 1.6 0.00 0.00 0.00 94 1015.2
20260904070552 25 0 0.0 1.6 0.00 0.00 0.00 94 1015.2
20260904070119 25 77 0.0 1.6 0.00 0.00 0.00 94 1015.2
20260904065551 25 77 0.0 3.2 0.00 0.00 0.00 94 1015.2
20260904065052 25 0 0.0 3.2 0.00 0.00 0.00 94 1015.3
20260904064603 25 0 0.0 1.6 0.00 0.00 0.00 94 1015.3
20260904064051 25 0 0.0 0.0 0.00 0.00 0.00 93 1015.2
20260904063551 25 0 0.0 0.0 0.00 0.00 0.00 93 1015.2
20260904063103 25 0 0.0 0.0 0.00 0.00 0.00 93 1015.2
20260904062552 25 0 0.0 1.6 0.00 0.00 0.00 92 1015.3
20260904062051 25 0 0.0 1.6 0.00 0.00 0.00 92 1015.2
20260904061606 25 0 0.0 0.0 0.00 0.00 0.00 93 1015.3
20260904061051 25 0 0.0 0.0 0.00 0.00 0.00 92 1015.3
20260904060552 25 0 0.0 0.0 0.00 0.00 0.00 92 1015.1
20260904060106 25 0 0.0 0.0 0.00 0.00 0.00 91 1015.1
20260904055551 26 0 0.0 0.0 0.00 0.00 0.00 91 1015.1
20260904055051 26 0 0.0 0.0 0.00 0.00 0.00 91 1015.2
20260904054608 26 0 0.0 0.0 0.00 0.00 0.00 90 1015.3
20260904054051 26 0 0.0 0.0 0.00 0.00 0.00 90 1015.4
20260904053551 26 0 0.0 0.0 0.00 0.00 0.00 90 1015.3
20260904053059 26 0 0.0 1.6 0.00 0.00 0.00 89 1015.2
20260904052552 26 0 0.0 1.6 0.00 0.00 0.00 88 1015.2
20260904052052 26 0 0.0 1.6 0.00 0.00 0.00 88 1015.2
20260904051607 26 0 0.0 0.0 0.00 0.00 0.00 88 1015.2
20260904051052 26 0 0.0 0.0 0.00 0.00 0.00 88 1015.2
20260904050553 26 0 0.0 0.0 0.00 0.00 0.00 88 1015.3
20260904050107 26 0 0.0 0.0 0.00 0.00 0.00 87 1015.3
20260904045551 26 0 0.0 0.0 0.00 0.00 0.00 88 1015.2
20260904045051 26 0 0.0 0.0 0.00 0.00 0.00 88 1015.3
20260904044602 26 0 0.0 0.0 0.00 0.00 0.00 88 1015.3
20260904044052 27 0 0.0 1.6 0.00 0.00 0.00 86 1015.4
20260904043551 27 0 0.0 1.6 0.00 0.00 0.00 86 1015.4
20260904043119 27 0 0.0 0.0 0.00 0.00 0.00 86 1015.3
20260904042552 27 0 0.0 0.0 0.00 0.00 0.00 85 1015.3
20260904042053 27 0 0.0 0.0 0.00 0.00 0.00 84 1015.4
20260904041606 27 0 0.0 0.0 0.00 0.00 0.00 82 1015.4
20260904041051 27 0 0.0 0.0 0.00 0.00 0.00 82 1015.4
20260904040551 27 0 0.0 0.0 0.00 0.00 0.00 82 1015.3
20260904040107 27 0 0.0 0.0 0.00 0.00 0.00 82 1015.4
20260904035551 27 0 0.0 0.0 0.00 0.00 0.00 81 1015.5
20260904035051 27 0 0.0 0.0 0.00 0.00 0.00 81 1015.5
20260904034605 27 0 0.0 0.0 0.00 0.00 0.00 80 1015.4
20260904034051 28 0 0.0 1.6 0.00 0.00 0.00 80 1015.5
20260904033552 28 0 0.0 4.8 0.00 0.00 0.00 79 1015.5
20260904033103 28 0 0.0 4.8 0.00 0.00 0.00 79 1015.5
20260904032550 28 56 0.0 4.8 0.00 0.00 0.00 79 1015.5
20260904032050 28 0 0.0 3.2 0.00 0.00 0.00 79 1015.5
20260904031603 28 0 0.0 4.8 0.00 0.00 0.00 79 1015.6
20260904031051 28 0 0.0 4.8 0.00 0.00 0.00 79 1015.5
20260904030551 28 0 1.6 8.0 0.00 0.00 0.00 79 1015.6
20260904025551 28 57 0.0 1.6 0.00 0.00 0.00 81 1015.7
20260904025052 28 0 0.0 0.0 0.00 0.00 0.00 81 1015.5
20260904024608 28 0 0.0 0.0 0.00 0.00 0.00 80 1015.5
20260904024054 28 0 0.0 0.0 0.00 0.00 0.00 80 1015.5
20260904023551 28 0 0.0 1.6 0.00 0.00 0.00 80 1015.4
20260904023103 28 0 0.0 1.6 0.00 0.00 0.00 79 1015.4
20260904022551 28 0 0.0 1.6 0.00 0.00 0.00 79 1015.3
20260904022052 28 0 0.0 0.0 0.00 0.00 0.00 81 1015.2
20260904021602 28 0 0.0 0.0 0.00 0.00 0.00 81 1015.2
20260904021051 28 0 0.0 0.0 0.00 0.00 0.00 81 1015.2
20260904020552 28 0 0.0 1.6 0.00 0.00 0.00 82 1015.1
20260904020104 29 0 0.0 1.6 0.00 0.00 0.00 81 1015.1
20260904015551 29 0 0.0 1.6 0.00 0.00 0.00 81 1015.0
20260904015051 29 91 0.0 1.6 0.00 0.00 0.00 81 1014.9
20260904014645 29 0 0.0 1.6 0.00 0.00 0.00 79 1014.9
20260904014052 30 0 0.0 1.6 0.00 0.00 0.00 79 1014.9
20260904013551 30 0 0.0 1.6 0.00 0.00 0.00 78 1014.9
20260904013103 30 0 0.0 1.6 0.00 0.00 0.00 77 1014.7
20260904012551 30 0 0.0 0.0 0.00 0.00 0.00 75 1014.7
20260904012051 30 0 0.0 0.0 0.00 0.00 0.00 76 1014.7
20260904011603 30 0 0.0 0.0 0.00 0.00 0.00 74 1014.7
20260904011054 30 0 0.0 0.0 0.00 0.00 0.00 74 1014.6
20260904010551 30 0 0.0 0.0 0.00 0.00 0.00 73 1014.5
20260904005551 31 0 0.0 0.0 0.00 0.00 0.00 71 1014.5
20260904005052 31 0 0.0 1.6 0.00 0.00 0.00 70 1014.4
20260904004604 31 0 0.0 1.6 0.00 0.00 0.00 70 1014.5
20260904004052 31 0 0.0 1.6 0.00 0.00 0.00 69 1014.5
20260904003551 31 0 0.0 3.2 0.00 0.00 0.00 67 1014.4
20260904003102 32 0 0.0 3.2 0.00 0.00 0.00 67 1014.4
20260904002552 32 86 1.6 3.2 0.00 0.00 0.00 64 1014.5
20260904002052 33 84 0.0 1.6 0.00 0.00 0.00 61 1014.4
20260904001601 33 0 0.0 1.6 0.00 0.00 0.00 61 1014.4
20260904001051 33 0 0.0 3.2 0.00 0.00 0.00 60 1014.3
20260904000551 33 0 0.0 3.2 0.00 0.00 0.00 59 1014.3
20260904000138 34 75 0.0 3.2 0.00 0.00 0.00 58 1014.3
20260903235551 34 83 1.6 4.8 0.00 0.00 0.00 58 1014.2
20260903235051 35 49 1.6 4.8 0.00 0.00 0.00 58 1014.2
20260903234603 35 84 0.0 1.6 0.00 0.00 0.00 53 1014.2
20260903234054 36 0 0.0 1.6 0.00 0.00 0.00 52 1014.2
20260903233551 36 0 0.0 1.6 0.00 0.00 0.00 51 1014.2
20260903233102 36 300 0.0 4.8 0.00 0.00 0.00 51 1014.2
20260903232551 36 0 0.0 4.8 0.00 0.00 0.00 49 1014.2
20260903232055 36 299 1.6 4.8 0.00 0.00 0.00 48 1014.1
20260903231618 36 68 0.0 4.8 0.00 0.00 0.00 48 1014.1
20260903231051 36 72 1.6 4.8 0.00 0.00 0.00 48 1014.1
20260903230551 36 94 1.6 4.8 0.00 0.00 0.00 48 1014.0
20260903230111 36 83 1.6 4.8 0.00 0.00 0.00 49 1013.8
20260903225554 36 78 1.6 4.8 0.00 0.00 0.00 48 1013.9
20260903225052 37 80 0.0 4.8 0.00 0.00 0.00 48 1013.9
20260903224603 37 253 1.6 4.8 0.00 0.00 0.00 47 1013.9
20260903224055 37 106 1.6 6.4 0.00 0.00 0.00 46 1013.8
20260903223552 38 82 1.6 8.0 0.00 0.00 0.00 45 1013.8
20260903223103 38 243 1.6 8.0 0.00 0.00 0.00 45 1013.8
20260903222555 38 44 1.6 6.4 0.00 0.00 0.00 44 1013.8
20260903222051 38 86 1.6 9.7 0.00 0.00 0.00 46 1013.7
20260903221606 38 91 1.6 9.7 0.00 0.00 0.00 45 1013.8
20260903221051 38 63 3.2 9.7 0.00 0.00 0.00 45 1013.8
20260903220552 38 78 1.6 6.4 0.00 0.00 0.00 46 1013.7
20260903220116 38 65 1.6 8.0 0.00 0.00 0.00 46 1013.8
20260903215551 38 79 1.6 9.7 0.00 0.00 0.00 45 1013.7
20260903215052 38 9 3.2 9.7 0.00 0.00 0.00 46 1013.8
20260903214606 39 338 1.6 11.3 0.00 0.00 0.00 46 1013.7
20260903214051 38 113 3.2 11.3 0.00 0.00 0.00 48 1013.8
20260903213552 38 68 1.6 8.0 0.00 0.00 0.00 45 1013.8
20260903213105 39 82 1.6 8.0 0.00 0.00 0.00 47 1013.8
20260903212551 38 80 1.6 8.0 0.00 0.00 0.00 46 1014.0
20260903212051 38 86 1.6 8.0 0.00 0.00 0.00 46 1014.0
20260903211603 38 86 3.2 8.0 0.00 0.00 0.00 45 1014.0
20260903211052 39 84 3.2 8.0 0.00 0.00 0.00 47 1014.0
20260903210552 39 356 1.6 4.8 0.00 0.00 0.00 47 1014.1
20260903205554 38 164 0.0 8.0 0.00 0.00 0.00 46 1014.3
20260903205051 38 30 1.6 8.0 0.00 0.00 0.00 46 1014.5
20260903204608 38 67 1.6 11.3 0.00 0.00 0.00 45 1014.5
20260903204051 38 68 3.2 11.3 0.00 0.00 0.00 46 1014.5
20260903203555 38 72 3.2 9.7 0.00 0.00 0.00 46 1014.6
20260903203102 38 83 3.2 9.7 0.00 0.00 0.00 47 1014.6
20260903202555 38 115 3.2 6.4 0.00 0.00 0.00 47 1014.7
20260903202051 38 105 3.2 6.4 0.00 0.00 0.00 47 1014.6
20260903201607 38 90 1.6 6.4 0.00 0.00 0.00 49 1014.8
20260903201052 38 70 1.6 6.4 0.00 0.00 0.00 46 1014.9
20260903200552 38 91 3.2 6.4 0.00 0.00 0.00 48 1015.0
20260903200108 38 84 3.2 9.7 0.00 0.00 0.00 48 1015.0
20260903195555 39 102 1.6 9.7 0.00 0.00 0.00 47 1015.0
20260903195051 38 59 3.2 9.7 0.00 0.00 0.00 49 1015.1
20260903194601 38 57 0.0 6.4 0.00 0.00 0.00 52 1015.2
20260903194052 38 83 3.2 6.4 0.00 0.00 0.00 50 1015.3
20260903193551 38 56 1.6 8.0 0.00 0.00 0.00 51 1015.3
20260903193101 37 27 1.6 9.7 0.00 0.00 0.00 48 1015.4
20260903192552 38 86 3.2 9.7 0.00 0.00 0.00 48 1015.5
20260903192052 38 86 1.6 6.4 0.00 0.00 0.00 49 1015.6
20260903191607 38 70 1.6 6.4 0.00 0.00 0.00 50 1015.6
20260903191051 38 62 1.6 6.4 0.00 0.00 0.00 49 1015.7
20260903190551 38 52 0.0 4.8 0.00 0.00 0.00 51 1015.8
20260903190106 37 99 1.6 8.0 0.00 0.00 0.00 51 1015.8
20260903185551 37 103 3.2 8.0 0.00 0.00 0.00 56 1015.9
20260903185051 37 87 3.2 6.4 0.00 0.00 0.00 55 1015.9
20260903184601 37 106 1.6 4.8 0.00 0.00 0.00 53 1015.9
20260903184052 37 259 0.0 8.0 0.00 0.00 0.00 51 1015.9
20260903183551 37 88 3.2 8.0 0.00 0.00 0.00 54 1016.1
20260903183104 36 84 1.6 6.4 0.00 0.00 0.00 57 1016.1
20260903182554 36 95 3.2 9.7 0.00 0.00 0.00 54 1016.2
20260903182051 36 109 3.2 9.7 0.00 0.00 0.00 55 1016.3
20260903181559 36 86 3.2 6.4 0.00 0.00 0.00 52 1016.4
20260903181055 37 110 0.0 6.4 0.00 0.00 0.00 51 1016.3
20260903180552 37 98 1.6 6.4 0.00 0.00 0.00 54 1016.5
20260903175552 37 248 0.0 6.4 0.00 0.00 0.00 54 1016.5
20260903175051 37 94 1.6 6.4 0.00 0.00 0.00 55 1016.6
20260903174600 36 96 1.6 4.8 0.00 0.00 0.00 56 1016.7
20260903174051 36 267 1.6 4.8 0.00 0.00 0.00 53 1016.6
20260903173552 36 0 0.0 11.3 0.00 0.00 0.00 56 1016.7
20260903173107 36 77 1.6 11.3 0.00 0.00 0.00 53 1016.7